Regional Weather Roundup
Issued by NWS Midland/Odessa, TX

Skip options and go directly to product.
Home | Oldest Version | Next Version | Current Version | All | Text Only | Save Text | Print | Product List | Glossary On

Skip product version selection by date and time.   
602
ASUS44 KMAF 031501
RWRMAF
MIDLAND AREA WEATHER ROUNDUP
NATIONAL WEATHER SERVICE MIDLAND TX
1000 AM CDT TUE MAY 03 2016

...IN SOUTHWEST TEXAS AND SOUTHEAST NEW MEXICO...

CITY           SKY/WX    TMP DP  RH WIND       PRES   REMARKS
ALPINE         SUNNY     60  41  50 S5        30.22S
ANDREWS        FAIR      61  44  54 SW8       30.14S
ARTESIA        NOT AVBL
BIG SPRING     SUNNY     57  45  63 S10       30.16F
CARLSBAD       SUNNY     58  36  43 SE3       30.12S
DRYDEN           N/A     65  48  54 VRB3      30.12S
FORT STOCKTON  SUNNY     65  44  46 S9        30.13S
GUAD PASS      NOT AVBL
HOBBS          SUNNY     61  41  48 S15       30.15S
MARFA          SUNNY     56  40  55 SE5       30.20R
MIDLAND AIRPK  SUNNY     62  46  56 SW9       30.15S
MIDLAND INTL   SUNNY     64  45  49 S10       30.14S
ODESSA         SUNNY     64  44  48 S12       30.15R
PECOS          SUNNY     55  37  52 CALM      30.13S
PRESIDIO       NOT AVBL
SEMINOLE       SUNNY     63  44  50 SW12      30.15S
SNYDER           N/A     59  46  62 SW12      30.16R
WINK           SUNNY     63  42  46 S7        30.12S
$$
...OTHER STATIONS IN TEXAS...

CITY           SKY/WX    TMP DP  RH WIND       PRES   REMARKS
ABILENE        SUNNY     61  50  67 S8        30.15R
AMARILLO       CLOUDY    53  39  59 N12       30.15R
AUSTIN         SUNNY     64  47  53 NE12      30.13R
BROWNSVILLE    CLOUDY    67  57  70 NW12      30.06R
CORPUS CHRISTI PTSUNNY   68  51  54 N13       30.08R
DALLAS FTW     SUNNY     64  45  49 NW6       30.13S
DEL RIO        SUNNY     65  54  67 SE5       30.12R
EL PASO        SUNNY     63  32  31 VRB3      30.14R
HOUSTON INT    MOSUNNY   63  51  65 N12G24    30.07S
LUBBOCK        MOSUNNY   62  42  47 SW14      30.13R
SAN ANGELO     SUNNY     62  51  67 S6        30.15S
SAN ANTONIO    PTSUNNY   65  50  58 NE8       30.11S
WACO           SUNNY     63  50  62 N5        30.15R
WICHITA FALLS  NOT AVBL
$$
...OTHER LOCATIONS IN NEW MEXICO...

CITY           SKY/WX    TMP DP  RH WIND       PRES   REMARKS
ALAMAGORDO     SUNNY     61  28  29 NW8       30.17S
ALBUQUERQUE    MOSUNNY   54  37  52 VRB7      30.21S
CANNON AFB     NOT AVBL
CLOVIS         SUNNY     55  37  50 SW12      30.14S
HOLLOMAN AFB   NOT AVBL
ROSWELL        SUNNY     57  34  41 CALM      30.13S
RUIDOSO          N/A     52  28  40 NW5       30.24S
SANTA FE       SUNNY     52  36  54 N14       30.21S
TRUTH OR CONSE PTSUNNY   60  35  39 NE6       30.17S
TUCUMCARI      SUNNY     58  39  49 N9        30.13R
$$

USA.gov is the U.S. government's official web portal to all federal, state and local government web resources and services.